Simultaneous Nadir Overpasses (SNOs) Predictions

Prediction of SNOs between LANDSAT-8 and METOP-B Satellite Orbit:

Table of predicted SNOs for the next 14.0 days since TLE Epoch: 5/18/2018
Index Date (LANDSAT-8) Time (LANDSAT-8) Lat,Lon (LANDSAT-8) SZA (LANDSAT-8 ) Date (METOP-B) Time (METOP-B) Lat,Lon (METOP-B) SZA (METOP-B ) Distance(km) Time Diff (sec)
1 05/19/2018 19:52:00 -81.15, 101.50 116.55 05/19/2018 19:51:38 -81.15, 101.38 116.57 2.08 22
2 05/19/2018 20:41:25 81.18, -90.39 63.52 05/19/2018 20:42:16 81.17, -90.45 63.53 1.09 51
3 05/22/2018 15:26:13 -81.15, 167.96 117.12 05/22/2018 15:25:58 -81.16, 168.04 117.11 1.46 15
4 05/22/2018 16:15:38 81.18, -23.96 62.94 05/22/2018 16:16:36 81.18, -23.82 62.99 2.53 58
5 05/25/2018 11:00:26 -81.15,-125.61 117.65 05/25/2018 11:00:19 -81.15,-125.70 117.66 1.48 7
6 05/25/2018 11:49:51 81.18, 42.44 62.41 05/25/2018 11:50:57 81.18, 42.43 62.44 0.27 66
7 05/28/2018 05:45:11 81.15, 133.15 61.87 05/28/2018 05:43:58 81.14, 133.04 61.82 2.18 73
8 05/28/2018 06:34:37 -81.17, -58.85 118.09 05/28/2018 06:34:37 -81.17, -58.69 118.07 2.68 0
9 05/28/2018 07:24:02 81.19, 109.17 61.97 05/28/2018 07:25:16 81.18, 109.04 61.98 2.59 74
10 05/31/2018 01:19:24 81.14,-160.51 61.42 05/31/2018 01:18:18 81.15,-160.36 61.41 2.52 66




NCC Satellite Simultaneous Nadir Overpasses (SNOs) Prediction Service
